Location: Newark
(47.4833°N, 7.5167°E)
Time: 12:08:39
(UTC+00:00)

N. Korean satellite - Pass Details

Date: 24 October 2019
Orbit: 456 x 506 km, 97.2° (Epoch: 13 November)

Event Time Altitude Azimuth Distance (km) Brightness Sun altitude
Rises 16:50:23 0° 179° (S) 2,466 10.3 -4.7°
Reaches altitude 10° 16:52:28 10° 186° (S) 1,601 9.4 -5.1°
Maximum altitude 16:55:47 46° 261° (W) 628 7.8 -5.6°
Drops below altitude 10° 16:59:10 10° 336° (NNW) 1,633 9.4 -6.2°
Sets 17:01:18 0° 343° (NNW) 2,523 10.3 -6.5°
